DAL7892 KJFK-KBOS

Flight info

Callsign DAL7892
Flight time 0h 43m
Altitude 21000
Route MERIT ROBUC3
Aircraft B738/M-SDE2E3FGHIRWXY/LB1

Departure

Time 2026-05-06 19:22
Airport John F. Kennedy International Airport (KJFK)

Arrival

Time 2026-05-06 20:06
Airport Boston Logan International Airport (KBOS)
Time Latitude Longitude Altitude Speed Heading
2026-05-06 18:20 40.63734 -73.78177 20 ft 0 kts 82°
2026-05-06 19:06 40.63734 -73.78179 20 ft 1 kts 82°
2026-05-06 19:06 40.63731 -73.78201 21 ft 3 kts 82°
2026-05-06 19:06 40.63729 -73.78223 21 ft 2 kts 83°
2026-05-06 19:07 40.63729 -73.78249 20 ft 3 kts 108°
2026-05-06 19:07 40.63737 -73.78268 21 ft 3 kts 151°
2026-05-06 19:07 40.63755 -73.78277 20 ft 3 kts 173°
2026-05-06 19:07 40.63768 -73.78278 23 ft 1 kts 173°
2026-05-06 19:08 40.63771 -73.78279 21 ft 0 kts 173°
2026-05-06 19:10 40.63765 -73.78278 22 ft 3 kts 173°
2026-05-06 19:10 40.63728 -73.78272 20 ft 8 kts 173°
2026-05-06 19:10 40.63656 -73.78260 20 ft 12 kts 173°
2026-05-06 19:11 40.63574 -73.78259 20 ft 12 kts 194°
2026-05-06 19:11 40.63503 -73.78244 20 ft 11 kts 127°
2026-05-06 19:11 40.63458 -73.78159 20 ft 11 kts 124°
2026-05-06 19:11 40.63421 -73.78073 20 ft 11 kts 114°
2026-05-06 19:12 40.63388 -73.77986 20 ft 10 kts 119°
2026-05-06 19:12 40.63356 -73.77902 20 ft 10 kts 105°
2026-05-06 19:12 40.63378 -73.77819 21 ft 10 kts 49°
2026-05-06 19:12 40.63431 -73.77764 21 ft 10 kts 33°
2026-05-06 19:13 40.63489 -73.77722 22 ft 9 kts 29°
2026-05-06 19:13 40.63547 -73.77679 19 ft 10 kts 29°
2026-05-06 19:13 40.63604 -73.77634 19 ft 9 kts 34°
2026-05-06 19:13 40.63663 -73.77585 19 ft 11 kts 31°
2026-05-06 19:14 40.63732 -73.77529 19 ft 12 kts 31°
2026-05-06 19:14 40.63800 -73.77475 19 ft 11 kts 31°
2026-05-06 19:14 40.63867 -73.77426 19 ft 11 kts 27°
2026-05-06 19:14 40.63881 -73.77416 20 ft 0 kts 30°
2026-05-06 19:17 40.63894 -73.77406 19 ft 7 kts 30°
2026-05-06 19:17 40.63959 -73.77356 19 ft 12 kts 30°
2026-05-06 19:17 40.64035 -73.77295 20 ft 13 kts 33°
2026-05-06 19:18 40.64113 -73.77232 21 ft 13 kts 28°
2026-05-06 19:18 40.64190 -73.77175 20 ft 13 kts 31°
2026-05-06 19:18 40.64272 -73.77108 20 ft 14 kts 30°
2026-05-06 19:18 40.64362 -73.77038 20 ft 16 kts 30°
2026-05-06 19:19 40.64468 -73.76988 19 ft 17 kts
2026-05-06 19:19 40.64561 -73.76963 19 ft 10 kts 39°
2026-05-06 19:19 40.64621 -73.76903 19 ft 11 kts 27°
2026-05-06 19:19 40.64694 -73.76852 19 ft 12 kts 31°
2026-05-06 19:20 40.64766 -73.76790 20 ft 13 kts 31°
2026-05-06 19:20 40.64841 -73.76727 21 ft 13 kts 31°
2026-05-06 19:20 40.64923 -73.76664 20 ft 14 kts 30°
2026-05-06 19:20 40.65013 -73.76594 20 ft 16 kts 30°
2026-05-06 19:21 40.65090 -73.76531 21 ft 9 kts 46°
2026-05-06 19:21 40.65095 -73.76459 21 ft 5 kts 116°
2026-05-06 19:21 40.65093 -73.76455 21 ft 0 kts 120°
2026-05-06 19:21 40.65085 -73.76437 23 ft 8 kts 119°
2026-05-06 19:22 40.65026 -73.76362 23 ft 14 kts 175°
2026-05-06 19:22 40.64799 -73.76530 21 ft 73 kts 211°
2026-05-06 19:22 40.64151 -73.77020 50 ft 135 kts 206°
2026-05-06 19:22 40.63276 -73.77684 706 ft 143 kts 207°
2026-05-06 19:23 40.62445 -73.78334 1756 ft 139 kts 215°
2026-05-06 19:23 40.61577 -73.79108 2352 ft 168 kts 217°
2026-05-06 19:23 40.60523 -73.80082 2626 ft 199 kts 218°
2026-05-06 19:23 40.59305 -73.81054 3223 ft 209 kts 212°
2026-05-06 19:24 40.57878 -73.81554 3916 ft 223 kts 186°
2026-05-06 19:24 40.56341 -73.80926 4591 ft 244 kts 154°
2026-05-06 19:24 40.55175 -73.79233 5288 ft 262 kts 125°
2026-05-06 19:24 40.54698 -73.76841 5858 ft 282 kts 95°
2026-05-06 19:25 40.54986 -73.74292 6473 ft 289 kts 79°
2026-05-06 19:25 40.55475 -73.71700 7049 ft 294 kts 78°
2026-05-06 19:25 40.55987 -73.69079 7643 ft 298 kts 78°
2026-05-06 19:25 40.56607 -73.66442 8167 ft 307 kts 64°
2026-05-06 19:26 40.58004 -73.64357 8706 ft 306 kts 28°
2026-05-06 19:26 40.59933 -73.63214 9280 ft 304 kts 14°
2026-05-06 19:26 40.61924 -73.62250 9885 ft 306 kts 14°
2026-05-06 19:26 40.63927 -73.61240 10419 ft 310 kts 15°
2026-05-06 19:27 40.65928 -73.60161 11001 ft 312 kts 17°
2026-05-06 19:27 40.67920 -73.59023 11570 ft 312 kts 18°
2026-05-06 19:27 40.69909 -73.57838 12097 ft 316 kts 19°
2026-05-06 19:27 40.71918 -73.56609 12626 ft 319 kts 19°
2026-05-06 19:28 40.73927 -73.55356 13193 ft 321 kts 20°
2026-05-06 19:28 40.75943 -73.54082 13731 ft 322 kts 20°
2026-05-06 19:28 40.77972 -73.52792 14184 ft 325 kts 20°
2026-05-06 19:28 40.80019 -73.51484 14662 ft 328 kts 20°
2026-05-06 19:29 40.82087 -73.50159 15096 ft 332 kts 20°
2026-05-06 19:29 40.84175 -73.48817 15554 ft 335 kts 20°
2026-05-06 19:29 40.86274 -73.47466 16007 ft 337 kts 20°
2026-05-06 19:29 40.88384 -73.46106 16464 ft 338 kts 20°
2026-05-06 19:30 40.90508 -73.44736 16901 ft 341 kts 19°
2026-05-06 19:30 40.92647 -73.43355 17332 ft 344 kts 20°
2026-05-06 19:30 40.94803 -73.41963 17764 ft 346 kts 20°
2026-05-06 19:30 40.96972 -73.40561 18191 ft 348 kts 20°
2026-05-06 19:31 40.99154 -73.39148 18576 ft 349 kts 19°
2026-05-06 19:31 41.01341 -73.37731 18973 ft 350 kts 19°
2026-05-06 19:31 41.05735 -73.34883 19734 ft 353 kts 19°
2026-05-06 19:32 41.07944 -73.33449 20102 ft 354 kts 19°
2026-05-06 19:32 41.10108 -73.31839 20429 ft 364 kts 32°
2026-05-06 19:32 41.11828 -73.29330 20740 ft 375 kts 56°
2026-05-06 19:32 41.13007 -73.26208 20857 ft 381 kts 65°
2026-05-06 19:33 41.14074 -73.22993 20846 ft 380 kts 66°
2026-05-06 19:33 41.15112 -73.19781 20832 ft 376 kts 66°
2026-05-06 19:33 41.15792 -73.17673 20852 ft 376 kts 66°
2026-05-06 19:33 41.17184 -73.13388 20854 ft 379 kts 66°
2026-05-06 19:34 41.18238 -73.10179 20863 ft 379 kts 66°
2026-05-06 19:34 41.19297 -73.06974 20865 ft 379 kts 65°
2026-05-06 19:34 41.20360 -73.03766 20864 ft 379 kts 65°
2026-05-06 19:34 41.21408 -73.00615 20862 ft 378 kts 65°
2026-05-06 19:35 41.22441 -72.97509 20860 ft 377 kts 65°
2026-05-06 19:35 41.23484 -72.94370 20840 ft 376 kts 65°
2026-05-06 19:35 41.24538 -72.91196 20870 ft 375 kts 65°
2026-05-06 19:35 41.25592 -72.88021 20878 ft 376 kts 65°
2026-05-06 19:36 41.26647 -72.84838 20881 ft 377 kts 65°
2026-05-06 19:36 41.27701 -72.81654 20844 ft 373 kts 65°
2026-05-06 19:36 41.28737 -72.78520 20753 ft 368 kts 66°
2026-05-06 19:36 41.29762 -72.75417 20310 ft 366 kts 66°
2026-05-06 19:37 41.30787 -72.72312 19708 ft 367 kts 66°
2026-05-06 19:37 41.31812 -72.69202 19094 ft 366 kts 66°
2026-05-06 19:37 41.32832 -72.66103 18538 ft 364 kts 66°
2026-05-06 19:37 41.33500 -72.64071 18187 ft 362 kts 66°
2026-05-06 19:38 41.34840 -72.59994 17366 ft 357 kts 67°
2026-05-06 19:38 41.35829 -72.56978 16757 ft 354 kts 67°
2026-05-06 19:38 41.36812 -72.53978 16162 ft 352 kts 67°
2026-05-06 19:38 41.37457 -72.52007 15778 ft 350 kts 67°
2026-05-06 19:39 41.38427 -72.49042 15229 ft 348 kts 68°
2026-05-06 19:39 41.39387 -72.46105 14769 ft 341 kts 68°
2026-05-06 19:39 41.40313 -72.43273 14535 ft 327 kts 68°
2026-05-06 19:39 41.41204 -72.40542 14273 ft 317 kts 68°
2026-05-06 19:40 41.42073 -72.37874 13999 ft 313 kts 68°
2026-05-06 19:40 41.42956 -72.35158 13760 ft 333 kts 68°
2026-05-06 19:40 41.43924 -72.32164 13554 ft 370 kts 68°
2026-05-06 19:40 41.44991 -72.28865 13353 ft 403 kts 68°
2026-05-06 19:41 41.46128 -72.25355 13084 ft 417 kts 68°
2026-05-06 19:41 41.47284 -72.21791 12822 ft 419 kts 68°
2026-05-06 19:41 41.48435 -72.18243 12562 ft 416 kts 68°
2026-05-06 19:41 41.49579 -72.14710 12302 ft 413 kts 69°
2026-05-06 19:42 41.50712 -72.11205 12069 ft 411 kts 68°
2026-05-06 19:42 41.51841 -72.07704 11820 ft 409 kts 69°
2026-05-06 19:42 41.52949 -72.04264 11581 ft 408 kts 69°
2026-05-06 19:42 41.54080 -72.00745 11336 ft 407 kts 69°
2026-05-06 19:43 41.55155 -71.97398 11111 ft 407 kts 69°
2026-05-06 19:43 41.56262 -71.93943 10995 ft 404 kts 69°
2026-05-06 19:43 41.57364 -71.90501 10961 ft 403 kts 69°
2026-05-06 19:43 41.58466 -71.87052 10971 ft 405 kts 69°
2026-05-06 19:44 41.59559 -71.83628 10968 ft 406 kts 69°
2026-05-06 19:44 41.60660 -71.80174 10976 ft 405 kts 69°
2026-05-06 19:44 41.61764 -71.76710 10975 ft 405 kts 69°
2026-05-06 19:44 41.62867 -71.73240 11000 ft 408 kts 70°
2026-05-06 19:45 41.63981 -71.69734 10962 ft 410 kts 70°
2026-05-06 19:45 41.65093 -71.66230 10961 ft 408 kts 70°
2026-05-06 19:45 41.66198 -71.62749 10973 ft 405 kts 70°
2026-05-06 19:45 41.67293 -71.59291 10970 ft 403 kts 70°
2026-05-06 19:46 41.68385 -71.55836 10968 ft 402 kts 70°
2026-05-06 19:46 41.69471 -71.52395 10972 ft 401 kts 70°
2026-05-06 19:46 41.70555 -71.48955 10981 ft 402 kts 70°
2026-05-06 19:46 41.71641 -71.45508 10988 ft 402 kts 70°
2026-05-06 19:47 41.72754 -71.42066 10985 ft 405 kts 67°
2026-05-06 19:47 41.74115 -71.38751 10988 ft 407 kts 61°
2026-05-06 19:47 41.75587 -71.35505 10991 ft 408 kts 60°
2026-05-06 19:47 41.77044 -71.32237 10987 ft 409 kts 62°
2026-05-06 19:48 41.78469 -71.28945 10980 ft 409 kts 62°
2026-05-06 19:48 41.79881 -71.25633 10979 ft 409 kts 62°
2026-05-06 19:48 41.81289 -71.22322 10977 ft 409 kts 62°
2026-05-06 19:48 41.82697 -71.19009 10976 ft 408 kts 62°
2026-05-06 19:49 41.84102 -71.15701 10977 ft 408 kts 62°
2026-05-06 19:49 41.85503 -71.12400 11015 ft 407 kts 62°
2026-05-06 19:49 41.86906 -71.09089 10986 ft 408 kts 62°
2026-05-06 19:49 41.88306 -71.05785 10977 ft 407 kts 62°
2026-05-06 19:50 41.89690 -71.02519 10977 ft 402 kts 62°
2026-05-06 19:50 41.91016 -70.99386 10989 ft 407 kts 62°
2026-05-06 19:50 41.92419 -70.96069 11016 ft 408 kts 62°
2026-05-06 19:50 41.93853 -70.92778 10742 ft 397 kts 60°
2026-05-06 19:51 41.95227 -70.89712 10473 ft 380 kts 61°
2026-05-06 19:51 41.96552 -70.86726 10187 ft 365 kts 62°
2026-05-06 19:51 41.97810 -70.83838 9935 ft 352 kts 63°
2026-05-06 19:51 41.99017 -70.81033 9679 ft 342 kts 64°
2026-05-06 19:52 42.00188 -70.78296 9431 ft 334 kts 64°
2026-05-06 19:52 42.01379 -70.75650 9137 ft 329 kts 56°
2026-05-06 19:52 42.02852 -70.73305 8886 ft 329 kts 48°
2026-05-06 19:52 42.04436 -70.71062 8655 ft 332 kts 47°
2026-05-06 19:53 42.06020 -70.68799 8407 ft 333 kts 48°
2026-05-06 19:53 42.07580 -70.66505 8155 ft 331 kts 49°
2026-05-06 19:53 42.09113 -70.64218 7995 ft 326 kts 49°
2026-05-06 19:53 42.10741 -70.62123 7941 ft 323 kts 30°
2026-05-06 19:54 42.12785 -70.60978 7716 ft 320 kts
2026-05-06 19:54 42.14977 -70.60368 7404 ft 322 kts
2026-05-06 19:54 42.17178 -70.59791 7103 ft 322 kts
2026-05-06 19:54 42.19372 -70.59210 6795 ft 321 kts
2026-05-06 19:55 42.21560 -70.58618 6487 ft 320 kts
2026-05-06 19:55 42.23744 -70.58016 6171 ft 320 kts
2026-05-06 19:55 42.25920 -70.57411 5850 ft 319 kts
2026-05-06 19:55 42.28087 -70.56805 5541 ft 318 kts
2026-05-06 19:56 42.30247 -70.56220 5237 ft 315 kts
2026-05-06 19:56 42.32347 -70.56402 4981 ft 292 kts 332°
2026-05-06 19:56 42.34080 -70.57567 4953 ft 269 kts 313°
2026-05-06 19:56 42.35451 -70.59189 4956 ft 259 kts 305°
2026-05-06 19:57 42.36741 -70.60890 4954 ft 259 kts 304°
2026-05-06 19:57 42.38021 -70.62599 4935 ft 258 kts 304°
2026-05-06 19:57 42.39294 -70.64296 4817 ft 256 kts 304°
2026-05-06 19:57 42.40561 -70.65977 4574 ft 251 kts 303°
2026-05-06 19:58 42.41774 -70.67569 4450 ft 237 kts 303°
2026-05-06 19:58 42.42952 -70.69127 4254 ft 236 kts 303°
2026-05-06 19:58 42.44117 -70.70670 4077 ft 234 kts 303°
2026-05-06 19:58 42.45276 -70.72206 3866 ft 233 kts 303°
2026-05-06 19:59 42.46432 -70.73735 3661 ft 232 kts 303°
2026-05-06 19:59 42.47584 -70.75257 3446 ft 231 kts 303°
2026-05-06 19:59 42.48714 -70.76750 3212 ft 230 kts 303°
2026-05-06 19:59 42.49855 -70.78257 2960 ft 229 kts 303°
2026-05-06 20:00 42.50998 -70.79770 2677 ft 231 kts 303°
2026-05-06 20:00 42.52151 -70.81281 2435 ft 228 kts 300°
2026-05-06 20:00 42.53159 -70.82908 2208 ft 223 kts 296°
2026-05-06 20:00 42.54111 -70.84564 2008 ft 225 kts 296°
2026-05-06 20:01 42.55053 -70.86281 1972 ft 228 kts 293°
2026-05-06 20:01 42.55577 -70.88187 1937 ft 206 kts 261°
2026-05-06 20:01 42.55246 -70.89982 1930 ft 195 kts 238°
2026-05-06 20:01 42.54450 -70.91431 1921 ft 192 kts 213°
2026-05-06 20:02 42.53261 -70.92281 1926 ft 194 kts 205°
2026-05-06 20:02 42.52009 -70.92998 1897 ft 197 kts 202°
2026-05-06 20:02 42.50740 -70.93619 1848 ft 188 kts 201°
2026-05-06 20:02 42.49547 -70.94192 1734 ft 176 kts 201°
2026-05-06 20:03 42.48405 -70.94744 1670 ft 175 kts 200°
2026-05-06 20:03 42.47260 -70.95298 1621 ft 174 kts 200°
2026-05-06 20:03 42.46124 -70.95849 1626 ft 174 kts 201°
2026-05-06 20:03 42.44979 -70.96403 1551 ft 176 kts 201°
2026-05-06 20:04 42.43833 -70.96960 1333 ft 169 kts 199°
2026-05-06 20:04 42.42801 -70.97457 1115 ft 148 kts 200°
2026-05-06 20:04 42.41898 -70.97893 911 ft 129 kts 201°
2026-05-06 20:04 42.41021 -70.98320 735 ft 138 kts 200°
2026-05-06 20:05 42.40167 -70.98742 625 ft 130 kts 199°
2026-05-06 20:05 42.39266 -70.99186 427 ft 143 kts 198°
2026-05-06 20:05 42.38325 -70.99616 268 ft 139 kts 199°
2026-05-06 20:05 42.37460 -71.00049 64 ft 128 kts 198°
2026-05-06 20:06 42.36722 -71.00403 27 ft 86 kts 199°
2026-05-06 20:06 42.36422 -71.00563 27 ft 12 kts 217°
2026-05-06 20:06 42.36398 -71.00651 25 ft 11 kts 291°
2026-05-06 20:06 42.36418 -71.00720 25 ft 0 kts 292°
2026-05-06 20:07 42.36419 -71.00724 26 ft 2 kts 292°
2026-05-06 20:07 42.36431 -71.00765 27 ft 8 kts 292°
2026-05-06 20:07 42.36459 -71.00860 26 ft 12 kts 292°
2026-05-06 20:07 42.36492 -71.00968 28 ft 12 kts 292°
2026-05-06 20:08 42.36523 -71.01073 26 ft 12 kts 292°
2026-05-06 20:08 42.36554 -71.01175 27 ft 12 kts 292°
2026-05-06 20:08 42.36589 -71.01270 25 ft 11 kts 317°
2026-05-06 20:08 42.36664 -71.01262 26 ft 11 kts 13°
2026-05-06 20:09 42.36737 -71.01246 26 ft 11 kts 358°
2026-05-06 20:09 42.36803 -71.01287 25 ft 10 kts 316°
2026-05-06 20:09 42.36851 -71.01352 26 ft 7 kts 315°
2026-05-06 20:09 42.36887 -71.01401 26 ft 7 kts 315°
2026-05-06 20:10 42.36921 -71.01448 26 ft 7 kts 315°
2026-05-06 20:10 42.36955 -71.01494 25 ft 7 kts 312°
2026-05-06 20:10 42.36985 -71.01544 27 ft 7 kts 298°
2026-05-06 20:10 42.36970 -71.01597 29 ft 7 kts 218°
2026-05-06 20:11 42.36932 -71.01633 25 ft 7 kts 214°
2026-05-06 20:11 42.36895 -71.01667 27 ft 7 kts 214°
2026-05-06 20:11 42.36851 -71.01687 26 ft 7 kts 182°
2026-05-06 20:11 42.36808 -71.01708 27 ft 7 kts 211°
2026-05-06 20:12 42.36781 -71.01732 27 ft 0 kts 214°
2026-05-06 20:12 42.36780 -71.01733 27 ft 0 kts 214°